Theta_e
322 322 321 321 321 321 321 321 322 323 323 323 323 322 321 319 319 320 321 321 321 318
322 322 321 322 322 322 321 323 324 323 322 322 323 322 320 318 319 321 321 321 322 321
322 322 322 322 322 323 323 325 323 323 323 322 322 322 319 318 321 322 322 322 322 321
322 322 322 322 323 323 323 324 324 324 323 322 321 320 319 319 322 322 322 322 320 319
322 321 321 322 323 324 323 324 324 325 323 323 323 321 320 320 324 323 322 320 322 319
320 320 320 321 323 324 323 323 324 323 323 326 327 325 321 323 323 321 319 319 319 319
321 321 321 321 322 323 324 323 323 322 324 326 326 323 324 323 322 320 320 321 321 324
321 321 321 322 322 323 323 323 323 324 323 325 324 324 323 323 320 320 323 323 323 324
323 323 322 321 322 321 321 323 323 321 322 322 320 307 312 318 320 320 318 320 321 322
326 323 322 322 322 320 319 319 318 319 319 318 314 303 307 312 319 318 318 317 320 321
324 322 323 321 320 318 317 317 316 320 318 316 312 301 303 311 322 318 318 318 321 320
323 323 322 320 318 318 319 316 316 318 316 314 316 302 302 317 322 321 320 320 321 318
323 323 322 319 318 317 319 316 316 316 315 309 317 301 304 315 320 319 318 318 317 309
323 322 321 319 317 317 317 316 314 313 314 316 317 312 302 307 319 317 316 317 316 313
Wind_Speed
7 5 4 5 4 4 3 3 3 5 5 5 4 4 4 3 3 4 4 6 4 3
6 7 6 6 4 3 3 3 4 5 5 5 4 5 4 3 3 4 3 3 3 3
7 6 6 5 5 4 3 4 5 4 5 5 5 4 4 2 3 4 3 3 5 3
6 6 6 5 4 4 4 5 5 5 5 5 5 4 3 3 4 4 4 4 4 4
6 6 5 4 4 4 4 4 5 5 5 5 5 5 5 4 3 4 4 4 4 5
6 6 5 5 4 4 5 5 4 4 5 5 6 5 4 3 4 4 3 4 3 3
6 6 5 4 4 4 4 6 4 3 4 4 4 4 4 3 3 3 3 3 2 3
6 6 5 4 4 3 4 5 5 4 4 4 5 3 5 4 4 3 3 2 3 4
7 6 5 5 5 4 5 5 6 5 5 5 3 3 7 6 5 4 4 4 4 4
8 7 6 5 5 5 5 5 6 5 6 5 4 5 6 7 4 4 3 4 4 4
7 6 6 6 6 5 4 6 5 5 5 5 3 3 6 6 4 4 4 3 3 4
7 7 7 6 6 4 5 4 4 4 5 5 2 3 4 8 5 5 4 3 4 4
8 8 8 7 6 3 4 5 5 5 4 5 2 3 8 7 4 4 3 4 4 6
7 8 7 7 3 5 6 6 5 5 4 4 4 4 6 7 3 4 3 2 2 2
Wind_Direction
122 124 126 141 146 165 178 185 183 185 180 181 174 180 190 202 199 193 212 214 201 211
123 128 142 146 143 163 176 181 168 178 167 174 171 181 178 182 208 204 212 205 219 213
137 133 135 138 165 163 165 140 150 151 155 162 168 187 176 175 210 188 180 167 170 223
135 134 145 152 152 158 151 151 148 163 158 174 169 180 168 201 192 182 167 168 185 223
133 142 138 152 155 140 149 151 158 158 162 174 170 173 190 199 191 185 183 192 185 242
147 138 149 152 137 147 156 144 143 151 190 195 172 174 201 193 181 183 184 183 207 223
154 151 152 148 143 158 164 148 150 175 183 168 143 143 140 143 147 144 165 165 145 148
146 141 141 147 145 152 146 155 151 149 131 130 129 133 129 136 127 143 119 99 130 130
129 139 147 145 146 135 126 129 117 114 117 114 89 95 119 124 121 109 101 111 76 68
146 145 155 149 144 130 121 116 117 117 110 86 96 75 122 120 115 118 124 117 126 132
144 143 146 149 148 127 126 127 132 111 105 110 80 63 139 118 120 107 109 122 121 115
149 155 149 157 153 137 130 123 122 125 130 121 113 67 153 100 88 85 76 81 104 110
159 159 161 153 149 134 122 119 114 109 113 125 128 107 114 106 110 101 87 64 71 94
161 154 151 135 137 135 126 115 108 112 126 126 131 101 114 123 130 133 117 108 90 107